Content
SEND FEEDBACK

Daily
Averages
Monthly
Summary
United States of America

FARMINGDALE, SOUTH DAKOTA


Home > North America > United States > South Dakota
Elevation: 2990 feet     Latitude: 43 59N     Longitude: 102 54W

WEATHER
 
SELECT A DAY
Number of Records: 200,482;   Date Range: 1/1/95 - 9/3/14
 
SHARE

PRINT THIS DATA

[ ← Previous Day ]
WEATHER ALMANAC - APRIL 30, 2013
[ Next Day → ]
[ °C ]   °F
Weather ElementAverageHighLow
Temperature45.4 °F54 °F (10:52 am)35.1 °F (11:52 pm)
Dewpoint25.1 °F36 °F (1:52 am)21 °F (10:52 pm)
Humidity46.2 %73 % (1:52 am)30 % (12:52 pm)
Barometer29.88 in30.20 in (11:52 pm)29.62 in (1:52 am)
Wind Speed18.1 mph32.2 mph (1:52 am)
Wind Gust43.7 mph (1:52 am)
Weather ElementAverage
Visibility10 mi
Wind DirectionNW (312.2 °)

Weather ElementTotal
Precipitation---
Heating Degree Days20.5 (Base 65)
Averaged from 23 records on April 30, 2013
WEATHER CONDITIONS BREAKOUT
WIND DIRECTION BREAKOUT
WEATHER BY HOUR - APRIL 30, 2013
[ °C ]   °F
Local TimeTemperatureDewpointHumidityBarometerVisibilityWind DirectionWind SpeedGust SpeedPrecipitationEventsConditions
1:52 AM44.1 °F36.0 °F73 %29.62 in10.0 miNNW (330°)32.2 mph43.7 mphScattered Clouds
2:52 AM45.0 °F28.9 °F53 %29.63 in10.0 miNW (320°)25.3 mphOvercast
3:52 AM46.0 °F24.1 °F42 %29.67 in10.0 miNW (310°)20.7 mph29.9 mphOvercast
4:52 AM45.0 °F23.0 °F42 %29.70 in10.0 miNNW (330°)8.1 mphOvercast
5:52 AM43.0 °F24.1 °F47 %29.71 in10.0 miCalmOvercast
6:52 AM43.0 °F27.0 °F53 %29.75 in10.0 miNNW (330°)6.9 mphOvercast
7:52 AM48.0 °F23.0 °F37 %29.75 in10.0 miNNW (330°)17.3 mph27.6 mphOvercast
8:52 AM50.0 °F25.0 °F38 %29.79 in10.0 miNNW (330°)20.7 mphScattered Clouds
9:52 AM50.0 °F24.1 °F36 %29.80 in10.0 miNorth (350°)24.2 mphPartly Cloudy
10:52 AM54.0 °F24.1 °F31 %29.80 in10.0 miNorth (350°)20.7 mph27.6 mphScattered Clouds
11:52 AM52.0 °F24.1 °F34 %29.79 in10.0 miNorth (360°)29.9 mph36.8 mphClear
12:52 PM54.0 °F23.0 °F30 %29.82 in10.0 miNorth (360°)27.6 mph36.8 mphClear
1:52 PM50.0 °F23.0 °F35 %29.85 in10.0 miNorth (360°)23.0 mph31.1 mphOvercast
2:52 PM48.9 °F23.0 °F36 %29.89 in10.0 miNNW (340°)24.2 mph31.1 mphOvercast
3:52 PM46.0 °F26.1 °F46 %29.94 in10.0 miNorth (350°)19.6 mph28.8 mphOvercast
4:52 PM41.0 °F30.9 °F67 %29.99 in10.0 miNorth (350°)17.3 mph24.2 mph0.00 inRainLight Rain
5:52 PM42.1 °F28.9 °F60 %30.02 in10.0 miWNW (300°)9.2 mph21.9 mph0.00 inOvercast
6:52 PM45.0 °F24.1 °F44 %30.05 in10.0 miNNW (340°)16.1 mph26.5 mphOvercast
7:52 PM42.1 °F27.0 °F55 %30.08 in10.0 miNorth (350°)10.4 mphOvercast
8:52 PM43.0 °F23.0 °F45 %30.11 in10.0 miNorth (360°)15.0 mph21.9 mphOvercast
9:52 PM39.0 °F21.9 °F50 %30.18 in10.0 miNorth (10°)12.7 mphMostly Cloudy
10:52 PM37.9 °F21.0 °F51 %30.19 in10.0 miNorth (360°)16.1 mph23.0 mphOvercast
11:52 PM35.1 °F21.0 °F57 %30.20 in10.0 miNorth (360°)19.6 mphOvercast
Hourly data recorded from KRAP, located miles away from Farmingdale, South Dakota







STORIES FROM OUR PARTNERS